Location: Springville
(37.3745°N, 89.2676°W)
Time: 00:08:51
(UTC+00:00)

YAOGAN 1 - Pass Details

Date: 29 October 2020
Orbit: 618 x 620 km, 97.9° (Epoch: 04 December)

Event Time Altitude Azimuth Distance (km) Brightness Sun altitude
Rises 23:41:46 0° 130° (SE) 2,886 5.6 -8.6°
Reaches altitude 10° 23:44:27 10° 113° (ESE) 1,984 4.7 -9.1°
Maximum altitude 23:47:29 19° 68° (ENE) 1,483 3.9 -9.7°
Drops below altitude 10° 23:50:32 10° 23° (NNE) 1,994 4.9 -10.3°
Sets 23:53:14 0° 5° (N) 2,904 5.9 -10.8°
